Вернуться в каталог

KOMPSAT 3A

АктивенНаукаPO
NORAD 40536·PAYLOAD·🇰🇷 South Korea

Запущен Mar 25, 2015 с Dombarovsky

Loading…

Ближайшие Пролёты (ближайшие 24 часа)

TLE

СвежийSource: Space-Track

Эпоха: Sep 14, 2026, 14:42 UTC

1 40536U 15014A   26257.61297278  .00022236  00000-0  27621-3 0  9999
2 40536  97.6933 255.8657 0049045 205.9313 153.9485 15.58521333635724

Отслеживайте KOMPSAT 3A в реальном времени с AllMySat

Download on the App Store